Location: Asheville, NC
(35.6000°N, 82.5500°W)
Time: 08:01:52
(UTC-04:00)

Envisat - Pass Details

Date: 15 October 2017
Orbit: 764 x 766 km, 98.2° (Epoch: 22 October)

Event Time Altitude Azimuth Distance (km) Brightness Sun altitude
Exits shadow 21:23:15 26° 351° (N) 1,467 4.6 -30.9°
Drops below altitude 10° 21:25:25 10° 349° (N) 2,304 5.7 -31.4°
Sets 21:27:44 0° 349° (N) 3,234 6.5 -31.8°
